Notices

What's New in latest Release from April 7th, 2021:

- Updated Glossary, including Speed of Maximum Gust, and Total Hourly Precipitation

- Updated national and regional climate services offices contacts and prices information

- Addition of station inventory lists for 1981-2010, 1971-2000, and 1961-1990 Normals.

If you haven't already, please take our survey and provide feedback about our website: https://eccc.sondage-survey.ca/f/LanguageSelection.aspx?s=442ca660-fcf1-47c0-95a9-59707d6fd709

Hourly Data Report for July 28, 2018

TORONTO CITY
ONTARIO
Current Station Operator: ECCC - MSC

43°40'00.000" N
79°24'00.000" W
112.50 m
6158355
71508
XTO

Download Data

Hourly Data (July 2018)
Hourly Data Report for July 28, 2018
TIME
LST
Temp Definition
°C
Dew Point Definition
°C
Rel Hum Definition
%
Precip. Amount Definition
mm

Wind Dir Definition
10's deg

Wind Spd Definition
km/h
Visibility Definition
km
Stn Press Definition
kPa
Hmdx Definition


Wind Chill Definition


Weather Definition


00:00 18.6 14.5 77 0.0 LegendMM LegendMM   100.06     LegendNANA
01:00 18.8 14.5 76 0.0 LegendMM LegendMM   100.09     LegendNANA
02:00 17.9 14.4 80 0.0 LegendMM LegendMM   100.08     LegendNANA
03:00 17.6 14.2 80 0.0 LegendMM LegendMM   100.10     LegendNANA
04:00 17.4 14.2 82 0.0 LegendMM LegendMM   100.08     LegendNANA
05:00 17.0 14.1 83 0.0 LegendMM LegendMM   100.12     LegendNANA
06:00 17.1 14.2 83 0.0 LegendMM LegendMM   100.14     LegendNANA
07:00 18.0 13.9 77 0.0 LegendMM LegendMM   100.22     LegendNANA
08:00 19.1 13.7 71 0.0 LegendMM LegendMM   100.25     LegendNANA
09:00 20.0 14.4 70 0.0 LegendMM LegendMM   100.26     LegendNANA
10:00 20.9 13.3 62 0.0 LegendMM LegendMM   100.28     LegendNANA
11:00 22.2 15.0 64 0.0 LegendMM LegendMM   100.28 26   LegendNANA
12:00 21.4 13.2 60 0.0 LegendMM LegendMM   100.28     LegendNANA
13:00 22.2 12.3 53 0.0 LegendMM LegendMM   100.26 25   LegendNANA
14:00 23.4 10.7 45 0.0 LegendMM LegendMM   100.27 25   LegendNANA
15:00 22.6 11.1 48 0.0 LegendMM LegendMM   100.28     LegendNANA
16:00 22.7 11.7 50 0.0 LegendMM LegendMM   100.28 25   LegendNANA
17:00 21.4 12.0 55 0.0 LegendMM LegendMM   100.32     LegendNANA
18:00 21.3 12.2 56 0.0 LegendMM LegendMM   100.33     LegendNANA
19:00 20.7 12.4 59 0.0 LegendMM LegendMM   100.36     LegendNANA
20:00 20.6 12.4 59 0.0 LegendMM LegendMM   100.40     LegendNANA
21:00 19.7 11.7 60 0.0 LegendMM LegendMM   100.46     LegendNANA
22:00 18.7 11.7 64 0.0 LegendMM LegendMM   100.50     LegendNANA
23:00 17.6 12.0 70 0.0 LegendMM LegendMM   100.52     LegendNANA

Notes on Data Quality.

Legend

  • E = Estimated
  • M = Missing
  • NA = Not Available*
  • [empty] = Indicates an unobserved value
Date modified: